Location: Cactus School
(34.5700°N, 118.0931°W)
Time: 04:47:58
(UTC-08:00)

Tiros 1 - Pass Details

Date: 29 November 2019
Orbit: 630 x 664 km, 48.4° (Epoch: 13 December)

Event Time Altitude Azimuth Distance (km) Brightness Sun altitude
Rises 11:14:19 0° 273° (W) 2,925 10.4 33.6°
Reaches altitude 10° 11:17:06 10° 289° (WNW) 2,013 9.6 33.6°
Maximum altitude 11:20:42 22° 340° (NNW) 1,383 8.6 33.7°
Drops below altitude 10° 11:24:19 10° 32° (NNE) 2,009 9.4 33.8°
Sets 11:27:05 0° 47° (NE) 2,917 10.2 33.8°
